Time,TemperatureF,DewpointF,PressureIn,WindDirection,WindDirectionDegrees,WindSpeedMPH,WindSpeedGustMPH,Humidity,HourlyPrecipIn,Conditions,Clouds,dailyrainin,SoftwareType,DateUTC
2013-01-22 00:00:00,23.9,7.9,30.12,West,270,2.9,2.9,50,0.00,,,0.00,WUHU216TE923,2013-01-22 05:00:00,
2013-01-22 00:06:00,23.5,7.5,30.12,West,270,2.1,2.3,50,0.00,,,0.00,WUHU216TE923,2013-01-22 05:06:00,
2013-01-22 00:11:00,23.5,7.5,30.12,West,270,2.1,2.3,50,0.00,,,0.00,WUHU216TE923,2013-01-22 05:11:00,
2013-01-22 00:16:00,22.8,6.4,30.12,West,270,1.3,2.3,49,0.00,,,0.00,WUHU216TE923,2013-01-22 05:16:00,
2013-01-22 00:21:00,22.8,6.4,30.12,North,0,1.5,3.1,49,0.00,,,0.00,WUHU216TE923,2013-01-22 05:21:00,
2013-01-22 00:26:00,22.8,6.4,30.12,WSW,248,1.7,3.1,49,0.00,,,0.00,WUHU216TE923,2013-01-22 05:26:00,
2013-01-22 00:31:00,22.5,6.1,30.12,East,90,2.1,2.7,49,0.00,,,0.00,WUHU216TE923,2013-01-22 05:31:00,
2013-01-22 00:36:00,22.1,6.2,30.12,SSW,203,2.0,2.1,50,0.00,,,0.00,WUHU216TE923,2013-01-22 05:36:00,
2013-01-22 00:41:00,22.1,6.2,30.12,WSW,248,1.7,2.7,50,0.00,,,0.00,WUHU216TE923,2013-01-22 05:41:00,
2013-01-22 00:46:00,21.7,5.8,30.12,WSW,248,1.7,2.8,50,0.00,,,0.00,WUHU216TE923,2013-01-22 05:46:00,
2013-01-22 00:51:00,21.7,5.8,30.12,NW,315,1.9,4.0,50,0.00,,,0.00,WUHU216TE923,2013-01-22 05:51:00,
2013-01-22 00:56:00,21.4,6.0,30.13,SW,225,1.8,4.0,51,0.00,,,0.00,WUHU216TE923,2013-01-22 05:56:00,
2013-01-22 01:01:00,21.4,6.0,30.13,West,270,2.1,2.8,51,0.00,,,0.00,WUHU216TE923,2013-01-22 06:01:00,
2013-01-22 01:06:00,21.4,6.0,30.13,NW,315,2.1,3.2,51,0.00,,,0.00,WUHU216TE923,2013-01-22 06:06:00,
2013-01-22 01:11:00,21.0,5.6,30.13,NNW,338,2.4,3.2,51,0.00,,,0.00,WUHU216TE923,2013-01-22 06:11:00,
2013-01-22 01:16:00,20.7,5.4,30.13,WSW,248,2.6,2.6,51,0.00,,,0.00,WUHU216TE923,2013-01-22 06:16:00,
2013-01-22 01:21:00,20.7,4.9,30.13,West,270,2.3,2.6,50,0.00,,,0.00,WUHU216TE923,2013-01-22 06:21:00,
2013-01-22 01:26:00,20.3,4.5,30.13,West,270,2.4,3.8,50,0.00,,,0.00,WUHU216TE923,2013-01-22 06:26:00,
2013-01-22 01:31:00,20.1,3.9,30.13,West,270,2.7,3.8,49,0.00,,,0.00,WUHU216TE923,2013-01-22 06:31:00,
2013-01-22 01:36:00,20.1,3.9,30.14,WNW,293,2.1,2.7,49,0.00,,,0.00,WUHU216TE923,2013-01-22 06:36:00,
2013-01-22 01:41:00,20.3,4.5,30.14,ESE,113,1.7,2.4,50,0.00,,,0.00,WUHU216TE923,2013-01-22 06:41:00,
2013-01-22 01:46:00,20.1,4.4,30.14,WNW,293,1.5,2.0,50,0.00,,,0.00,WUHU216TE923,2013-01-22 06:46:00,
2013-01-22 01:51:00,20.3,4.1,30.14,NW,315,1.6,2.2,49,0.00,,,0.00,WUHU216TE923,2013-01-22 06:51:00,
2013-01-22 01:56:00,20.1,4.4,30.14,SW,225,1.4,2.2,50,0.00,,,0.00,WUHU216TE923,2013-01-22 06:56:00,
2013-01-22 02:01:00,20.3,4.5,30.14,WSW,248,1.3,3.1,50,0.00,,,0.00,WUHU216TE923,2013-01-22 07:01:00,
2013-01-22 02:06:00,20.5,4.7,30.14,NW,315,1.3,3.1,50,0.00,,,0.00,WUHU216TE923,2013-01-22 07:06:00,
2013-01-22 02:11:00,20.7,4.9,30.14,NNW,338,1.0,1.3,50,0.00,,,0.00,WUHU216TE923,2013-01-22 07:11:00,
2013-01-22 02:16:00,20.3,4.1,30.15,West,270,1.0,1.4,49,0.00,,,0.00,WUHU216TE923,2013-01-22 07:16:00,
2013-01-22 02:21:00,20.1,4.4,30.15,NW,315,1.1,1.9,50,0.00,,,0.00,WUHU216TE923,2013-01-22 07:21:00,
2013-01-22 02:26:00,20.3,4.1,30.15,SE,135,1.0,1.9,49,0.00,,,0.00,WUHU216TE923,2013-01-22 07:26:00,
2013-01-22 02:31:00,20.1,3.9,30.15,NNW,338,0.9,1.4,49,0.00,,,0.00,WUHU216TE923,2013-01-22 07:31:00,
2013-01-22 02:36:00,19.8,3.6,30.14,ENE,68,1.1,1.4,49,0.00,,,0.00,WUHU216TE923,2013-01-22 07:36:00,
2013-01-22 02:41:00,20.3,4.5,30.14,South,180,1.2,1.3,50,0.00,,,0.00,WUHU216TE923,2013-01-22 07:41:00,
2013-01-22 02:46:00,20.1,4.4,30.14,WSW,248,0.7,2.1,50,0.00,,,0.00,WUHU216TE923,2013-01-22 07:46:00,
2013-01-22 02:51:00,20.3,5.0,30.14,NNE,23,0.3,2.1,51,0.00,,,0.00,WUHU216TE923,2013-01-22 07:51:00,
2013-01-22 02:56:00,20.1,4.4,30.14,East,90,0.5,1.4,50,0.00,,,0.00,WUHU216TE923,2013-01-22 07:56:00,
2013-01-22 03:01:00,20.3,5.0,30.14,West,270,0.6,1.8,51,0.00,,,0.00,WUHU216TE923,2013-01-22 08:01:00,
2013-01-22 03:06:00,20.1,4.4,30.14,SW,225,0.6,1.8,50,0.00,,,0.00,WUHU216TE923,2013-01-22 08:06:00,
2013-01-22 03:11:00,20.1,4.4,30.14,SW,225,0.6,1.2,50,0.00,,,0.00,WUHU216TE923,2013-01-22 08:11:00,
2013-01-22 03:16:00,20.1,4.8,30.15,ESE,113,0.9,3.0,51,0.00,,,0.00,WUHU216TE923,2013-01-22 08:16:00,
2013-01-22 03:21:00,20.1,4.8,30.15,WSW,248,1.3,3.0,51,0.00,,,0.00,WUHU216TE923,2013-01-22 08:21:00,
2013-01-22 03:26:00,20.3,5.0,30.15,SW,225,1.9,3.6,51,0.00,,,0.00,WUHU216TE923,2013-01-22 08:26:00,
2013-01-22 03:31:00,20.1,5.2,30.15,WSW,248,2.2,3.6,52,0.00,,,0.00,WUHU216TE923,2013-01-22 08:31:00,
2013-01-22 03:36:00,19.6,4.8,30.15,NNW,338,2.8,3.5,52,0.00,,,0.00,WUHU216TE923,2013-01-22 08:36:00,
2013-01-22 03:41:00,19.6,5.2,30.15,West,270,2.9,2.9,53,0.00,,,0.00,WUHU216TE923,2013-01-22 08:41:00,
2013-01-22 03:46:00,19.8,5.8,30.15,SW,225,2.3,3.4,54,0.00,,,0.00,WUHU216TE923,2013-01-22 08:46:00,
2013-01-22 03:51:00,19.8,5.4,30.15,WSW,248,2.2,3.9,53,0.00,,,0.00,WUHU216TE923,2013-01-22 08:51:00,
2013-01-22 03:56:00,19.6,5.2,30.15,West,270,2.4,3.9,53,0.00,,,0.00,WUHU216TE923,2013-01-22 08:56:00,
2013-01-22 04:01:00,19.6,5.2,30.15,WSW,248,2.3,3.9,53,0.00,,,0.00,WUHU216TE923,2013-01-22 09:01:00,
2013-01-22 04:06:00,19.6,5.2,30.15,WNW,293,2.2,3.9,53,0.00,,,0.00,WUHU216TE923,2013-01-22 09:06:00,
2013-01-22 04:11:00,19.6,5.2,30.15,WSW,248,2.4,5.3,53,0.00,,,0.00,WUHU216TE923,2013-01-22 09:11:00,
2013-01-22 04:16:00,19.2,5.2,30.16,NNE,23,2.7,5.3,54,0.00,,,0.00,WUHU216TE923,2013-01-22 09:16:00,
2013-01-22 04:21:00,19.2,4.8,30.16,WSW,248,2.4,3.1,53,0.00,,,0.00,WUHU216TE923,2013-01-22 09:21:00,
2013-01-22 04:26:00,19.2,4.8,30.16,West,270,1.9,2.4,53,0.00,,,0.00,WUHU216TE923,2013-01-22 09:26:00,
2013-01-22 04:31:00,19.2,5.2,30.16,WSW,248,1.6,1.9,54,0.00,,,0.00,WUHU216TE923,2013-01-22 09:31:00,
2013-01-22 04:36:00,19.2,4.8,30.15,West,270,0.6,1.6,53,0.00,,,0.00,WUHU216TE923,2013-01-22 09:36:00,
2013-01-22 04:41:00,19.6,5.2,30.15,WNW,293,0.3,1.1,53,0.00,,,0.00,WUHU216TE923,2013-01-22 09:41:00,
2013-01-22 04:46:00,19.6,5.2,30.15,SW,225,0.4,2.4,53,0.00,,,0.00,WUHU216TE923,2013-01-22 09:46:00,
2013-01-22 04:51:00,19.2,4.8,30.15,SW,225,0.7,2.4,53,0.00,,,0.00,WUHU216TE923,2013-01-22 09:51:00,
2013-01-22 04:56:00,19.2,4.8,30.16,SW,225,1.5,3.7,53,0.00,,,0.00,WUHU216TE923,2013-01-22 09:56:00,
2013-01-22 05:01:00,19.6,5.6,30.16,SW,225,1.7,3.7,54,0.00,,,0.00,WUHU216TE923,2013-01-22 10:01:00,
2013-01-22 05:06:00,19.6,5.6,30.16,West,270,1.3,1.7,54,0.00,,,0.00,WUHU216TE923,2013-01-22 10:06:00,
2013-01-22 05:11:00,19.6,5.2,30.16,NNE,23,0.9,1.6,53,0.00,,,0.00,WUHU216TE923,2013-01-22 10:11:00,
2013-01-22 05:16:00,19.2,5.2,30.16,WSW,248,0.9,1.5,54,0.00,,,0.00,WUHU216TE923,2013-01-22 10:16:00,
2013-01-22 05:21:00,19.2,5.2,30.16,SW,225,0.9,0.9,54,0.00,,,0.00,WUHU216TE923,2013-01-22 10:21:00,
2013-01-22 05:26:00,19.2,4.8,30.16,WSW,248,0.7,1.1,53,0.00,,,0.00,WUHU216TE923,2013-01-22 10:26:00,
2013-01-22 05:31:00,19.2,4.8,30.16,NNW,338,0.6,1.3,53,0.00,,,0.00,WUHU216TE923,2013-01-22 10:31:00,
2013-01-22 05:36:00,18.9,4.5,30.16,NW,315,1.3,2.2,53,0.00,,,0.00,WUHU216TE923,2013-01-22 10:36:00,
2013-01-22 05:41:00,18.9,4.5,30.16,West,270,1.3,2.8,53,0.00,,,0.00,WUHU216TE923,2013-01-22 10:41:00,
2013-01-22 05:46:00,18.9,4.1,30.16,WSW,248,1.1,2.8,52,0.00,,,0.00,WUHU216TE923,2013-01-22 10:46:00,
2013-01-22 05:51:00,18.5,3.3,30.16,NW,315,1.3,2.3,51,0.00,,,0.00,WUHU216TE923,2013-01-22 10:51:00,
2013-01-22 05:56:00,18.5,3.3,30.17,NW,315,1.5,2.3,51,0.00,,,0.00,WUHU216TE923,2013-01-22 10:56:00,
2013-01-22 06:01:00,18.9,4.1,30.17,SW,225,1.4,1.8,52,0.00,,,0.00,WUHU216TE923,2013-01-22 11:01:00,
2013-01-22 06:06:00,18.9,4.1,30.17,West,270,1.0,1.9,52,0.00,,,0.00,WUHU216TE923,2013-01-22 11:06:00,
2013-01-22 06:11:00,18.9,4.1,30.17,West,270,1.0,1.9,52,0.00,,,0.00,WUHU216TE923,2013-01-22 11:11:00,
2013-01-22 06:16:00,18.9,3.7,30.17,North,0,1.1,2.2,51,0.00,,,0.00,WUHU216TE923,2013-01-22 11:16:00,
2013-01-22 06:21:00,18.9,3.2,30.17,West,270,1.1,2.2,50,0.00,,,0.00,WUHU216TE923,2013-01-22 11:21:00,
2013-01-22 06:26:00,18.9,3.7,30.17,ENE,68,0.9,1.5,51,0.00,,,0.00,WUHU216TE923,2013-01-22 11:26:00,
2013-01-22 06:32:00,18.9,3.7,30.17,SW,225,0.7,1.2,51,0.00,,,0.00,WUHU216TE923,2013-01-22 11:32:00,
2013-01-22 06:37:00,18.9,3.7,30.19,WSW,248,1.0,6.6,51,0.00,,,0.00,WUHU216TE923,2013-01-22 11:37:00,
2013-01-22 06:42:00,18.7,3.5,30.19,SW,225,1.8,6.6,51,0.00,,,0.00,WUHU216TE923,2013-01-22 11:42:00,
2013-01-22 06:47:00,18.5,3.3,30.19,SW,225,2.8,6.3,51,0.00,,,0.00,WUHU216TE923,2013-01-22 11:47:00,
2013-01-22 06:52:00,18.3,2.7,30.19,WSW,248,2.6,5.5,50,0.00,,,0.00,WUHU216TE923,2013-01-22 11:52:00,
2013-01-22 06:57:00,18.5,3.7,30.20,SW,225,2.4,2.9,52,0.00,,,0.00,WUHU216TE923,2013-01-22 11:57:00,
2013-01-22 07:02:00,18.3,3.1,30.20,SW,225,2.3,2.9,51,0.00,,,0.00,WUHU216TE923,2013-01-22 12:02:00,
2013-01-22 07:07:00,18.1,3.4,30.20,West,270,2.9,5.7,52,0.00,,,0.00,WUHU216TE923,2013-01-22 12:07:00,
2013-01-22 07:12:00,18.0,3.3,30.20,WSW,248,3.5,5.7,52,0.00,,,0.00,WUHU216TE923,2013-01-22 12:12:00,
2013-01-22 07:17:00,17.8,3.1,30.21,West,270,3.5,4.7,52,0.00,,,0.00,WUHU216TE923,2013-01-22 12:17:00,
2013-01-22 07:22:00,17.8,3.5,30.21,WSW,248,3.0,3.5,53,0.00,,,0.00,WUHU216TE923,2013-01-22 12:22:00,
2013-01-22 07:27:00,18.1,3.4,30.21,SW,225,2.5,4.0,52,0.00,,,0.00,WUHU216TE923,2013-01-22 12:27:00,
2013-01-22 07:32:00,18.1,3.4,30.21,SW,225,2.7,4.0,52,0.00,,,0.00,WUHU216TE923,2013-01-22 12:32:00,
2013-01-22 07:37:00,18.1,3.8,30.21,WSW,248,2.5,2.8,53,0.00,,,0.00,WUHU216TE923,2013-01-22 12:37:00,
2013-01-22 07:42:00,18.1,3.4,30.21,WNW,293,2.7,3.7,52,0.00,,,0.00,WUHU216TE923,2013-01-22 12:42:00,
2013-01-22 07:47:00,17.8,3.5,30.21,West,270,3.4,4.9,53,0.00,,,0.00,WUHU216TE923,2013-01-22 12:47:00,
2013-01-22 07:52:00,17.8,3.5,30.21,WSW,248,3.2,4.9,53,0.00,,,0.00,WUHU216TE923,2013-01-22 12:52:00,
2013-01-22 07:57:00,18.1,3.8,30.21,SE,135,2.5,3.2,53,0.00,,,0.00,WUHU216TE923,2013-01-22 12:57:00,
2013-01-22 08:02:00,18.1,3.8,30.21,West,270,2.2,4.0,53,0.00,,,0.00,WUHU216TE923,2013-01-22 13:02:00,
2013-01-22 08:07:00,17.8,3.5,30.21,SW,225,2.4,4.0,53,0.00,,,0.00,WUHU216TE923,2013-01-22 13:07:00,
2013-01-22 08:12:00,17.8,3.5,30.21,SW,225,2.5,3.0,53,0.00,,,0.00,WUHU216TE923,2013-01-22 13:12:00,
2013-01-22 08:17:00,18.1,3.8,30.22,NW,315,2.8,2.8,53,0.00,,,0.00,WUHU216TE923,2013-01-22 13:17:00,
2013-01-22 08:22:00,18.1,3.8,30.22,SW,225,2.7,2.8,53,0.00,,,0.00,WUHU216TE923,2013-01-22 13:22:00,
2013-01-22 08:27:00,18.1,3.8,30.22,WSW,248,3.1,3.1,53,0.00,,,0.00,WUHU216TE923,2013-01-22 13:27:00,
2013-01-22 08:32:00,18.1,4.2,30.22,WSW,248,2.9,4.0,54,0.00,,,0.00,WUHU216TE923,2013-01-22 13:32:00,
2013-01-22 08:37:00,18.1,4.2,30.22,SW,225,2.3,4.0,54,0.00,,,0.00,WUHU216TE923,2013-01-22 13:37:00,
2013-01-22 08:42:00,18.1,3.8,30.22,SW,225,2.3,2.5,53,0.00,,,0.00,WUHU216TE923,2013-01-22 13:42:00,
2013-01-22 08:47:00,18.5,4.6,30.22,West,270,2.4,3.3,54,0.00,,,0.00,WUHU216TE923,2013-01-22 13:47:00,
2013-01-22 08:52:00,18.7,4.4,30.22,SW,225,2.9,4.0,53,0.00,,,0.00,WUHU216TE923,2013-01-22 13:52:00,
2013-01-22 08:57:00,18.9,4.5,30.23,West,270,3.2,5.1,53,0.00,,,0.00,WUHU216TE923,2013-01-22 13:57:00,
2013-01-22 09:02:00,18.9,5.0,30.23,WSW,248,3.6,5.1,54,0.00,,,0.00,WUHU216TE923,2013-01-22 14:02:00,
2013-01-22 09:07:00,18.7,4.4,30.23,WSW,248,3.8,3.8,53,0.00,,,0.00,WUHU216TE923,2013-01-22 14:07:00,
2013-01-22 09:12:00,18.9,4.5,30.23,WSW,248,3.2,5.0,53,0.00,,,0.00,WUHU216TE923,2013-01-22 14:12:00,
2013-01-22 09:17:00,18.9,4.5,30.25,West,270,2.9,5.1,53,0.00,,,0.00,WUHU216TE923,2013-01-22 14:17:00,
2013-01-22 09:22:00,18.9,4.1,30.25,WSW,248,2.9,5.1,52,0.00,,,0.00,WUHU216TE923,2013-01-22 14:22:00,
2013-01-22 09:27:00,18.9,4.5,30.25,WNW,293,2.1,2.9,53,0.00,,,0.00,WUHU216TE923,2013-01-22 14:27:00,
2013-01-22 09:32:00,19.2,4.4,30.25,WNW,293,1.3,2.3,52,0.00,,,0.00,WUHU216TE923,2013-01-22 14:32:00,
2013-01-22 09:37:00,19.6,4.8,30.26,WSW,248,1.3,3.8,52,0.00,,,0.00,WUHU216TE923,2013-01-22 14:37:00,
2013-01-22 09:42:00,19.6,4.8,30.26,WSW,248,2.7,3.8,52,0.00,,,0.00,WUHU216TE923,2013-01-22 14:42:00,
2013-01-22 09:47:00,19.6,4.8,30.26,South,180,2.5,2.9,52,0.00,,,0.00,WUHU216TE923,2013-01-22 14:47:00,
2013-01-22 09:52:00,19.6,4.3,30.26,SW,225,1.5,2.5,51,0.00,,,0.00,WUHU216TE923,2013-01-22 14:52:00,
2013-01-22 09:57:00,20.3,5.0,30.28,WNW,293,1.6,2.7,51,0.00,,,0.00,WUHU216TE923,2013-01-22 14:57:00,
2013-01-22 10:03:00,20.3,4.5,30.28,ESE,113,1.6,2.7,50,0.00,,,0.00,WUHU216TE923,2013-01-22 15:03:00,
2013-01-22 10:08:00,20.5,5.2,30.28,WSW,248,2.0,5.6,51,0.00,,,0.00,WUHU216TE923,2013-01-22 15:08:00,
2013-01-22 10:13:00,20.3,4.5,30.28,West,270,2.9,5.6,50,0.00,,,0.00,WUHU216TE923,2013-01-22 15:13:00,
2013-01-22 10:18:00,20.1,3.9,30.29,SW,225,3.4,7.1,49,0.00,,,0.00,WUHU216TE923,2013-01-22 15:18:00,
2013-01-22 10:23:00,20.1,3.4,30.29,West,270,4.4,7.1,48,0.00,,,0.00,WUHU216TE923,2013-01-22 15:23:00,
2013-01-22 10:28:00,20.1,3.4,30.29,SW,225,5.2,5.7,48,0.00,,,0.00,WUHU216TE923,2013-01-22 15:28:00,
2013-01-22 10:33:00,20.3,3.2,30.29,West,270,4.5,9.7,47,0.00,,,0.00,WUHU216TE923,2013-01-22 15:33:00,
2013-01-22 10:38:00,20.1,3.4,30.30,West,270,4.5,9.7,48,0.00,,,0.00,WUHU216TE923,2013-01-22 15:38:00,
2013-01-22 10:43:00,20.3,3.2,30.30,WSW,248,4.8,6.1,47,0.00,,,0.00,WUHU216TE923,2013-01-22 15:43:00,
2013-01-22 10:48:00,20.7,3.5,30.30,West,270,4.1,5.5,47,0.00,,,0.00,WUHU216TE923,2013-01-22 15:48:00,
2013-01-22 10:53:00,21.0,3.8,30.30,West,270,3.6,4.1,47,0.00,,,0.00,WUHU216TE923,2013-01-22 15:53:00,
2013-01-22 10:58:00,21.0,3.8,30.31,SW,225,3.0,3.6,47,0.00,,,0.00,WUHU216TE923,2013-01-22 15:58:00,
2013-01-22 11:03:00,21.4,4.2,30.31,WSW,248,3.2,3.8,47,0.00,,,0.00,WUHU216TE923,2013-01-22 16:03:00,
2013-01-22 11:08:00,21.4,4.2,30.31,WSW,248,3.2,3.8,47,0.00,,,0.00,WUHU216TE923,2013-01-22 16:08:00,
2013-01-22 11:13:00,22.1,3.8,30.31,SW,225,4.1,5.7,45,0.00,,,0.00,WUHU216TE923,2013-01-22 16:13:00,
2013-01-22 11:18:00,22.1,4.3,30.31,SW,225,4.5,7.0,46,0.00,,,0.00,WUHU216TE923,2013-01-22 16:18:00,
2013-01-22 11:23:00,22.5,4.2,30.31,West,270,4.3,9.6,45,0.00,,,0.00,WUHU216TE923,2013-01-22 16:23:00,
2013-01-22 11:28:00,22.5,4.2,30.31,WSW,248,4.7,9.6,45,0.00,,,0.00,WUHU216TE923,2013-01-22 16:28:00,
2013-01-22 11:33:00,22.6,3.8,30.31,West,270,5.0,6.2,44,0.00,,,0.00,WUHU216TE923,2013-01-22 16:33:00,
2013-01-22 11:38:00,22.8,4.0,30.30,East,90,4.3,6.2,44,0.00,,,0.00,WUHU216TE923,2013-01-22 16:38:00,
2013-01-22 11:43:00,23.5,4.1,30.30,WSW,248,4.4,6.5,43,0.00,,,0.00,WUHU216TE923,2013-01-22 16:43:00,
2013-01-22 11:48:00,23.2,3.8,30.30,WSW,248,4.8,6.5,43,0.00,,,0.00,WUHU216TE923,2013-01-22 16:48:00,
2013-01-22 11:53:00,23.2,3.8,30.30,South,180,5.4,5.5,43,0.00,,,0.00,WUHU216TE923,2013-01-22 16:53:00,
2013-01-22 11:58:00,23.5,4.1,30.29,WSW,248,4.8,5.8,43,0.00,,,0.00,WUHU216TE923,2013-01-22 16:58:00,
2013-01-22 12:03:00,24.3,4.8,30.29,West,270,4.3,5.8,43,0.00,,,0.00,WUHU216TE923,2013-01-22 17:03:00,
2013-01-22 12:08:00,24.6,5.1,30.29,WSW,248,4.5,4.6,43,0.00,,,0.00,WUHU216TE923,2013-01-22 17:08:00,
2013-01-22 12:13:00,24.6,5.1,30.29,WSW,248,4.5,4.5,43,0.00,,,0.00,WUHU216TE923,2013-01-22 17:13:00,
2013-01-22 12:18:00,25.7,5.0,30.27,WSW,248,3.0,5.2,41,0.00,,,0.00,WUHU216TE923,2013-01-22 17:18:00,
2013-01-22 12:23:00,25.7,4.5,30.27,West,270,3.8,6.9,40,0.00,,,0.00,WUHU216TE923,2013-01-22 17:23:00,
2013-01-22 12:28:00,25.9,4.7,30.27,WNW,293,4.3,6.9,40,0.00,,,0.00,WUHU216TE923,2013-01-22 17:28:00,
2013-01-22 12:33:00,26.1,4.3,30.27,West,270,5.0,5.0,39,0.00,,,0.00,WUHU216TE923,2013-01-22 17:33:00,
2013-01-22 12:38:00,26.6,4.7,30.27,West,270,3.9,5.0,39,0.00,,,0.00,WUHU216TE923,2013-01-22 17:38:00,
2013-01-22 12:43:00,26.8,5.5,30.27,SW,225,3.5,5.6,40,0.00,,,0.00,WUHU216TE923,2013-01-22 17:43:00,
2013-01-22 12:48:00,26.1,4.3,30.27,WSW,248,5.1,9.0,39,0.00,,,0.00,WUHU216TE923,2013-01-22 17:48:00,
2013-01-22 12:53:00,26.1,4.3,30.27,SW,225,5.0,9.0,39,0.00,,,0.00,WUHU216TE923,2013-01-22 17:53:00,
2013-01-22 12:58:00,26.8,5.5,30.24,ESE,113,4.0,5.0,40,0.00,,,0.00,WUHU216TE923,2013-01-22 17:58:00,
2013-01-22 13:03:00,27.1,4.6,30.24,WSW,248,3.8,4.6,38,0.00,,,0.00,WUHU216TE923,2013-01-22 18:03:00,
2013-01-22 13:08:00,26.8,4.4,30.24,SW,225,4.8,4.8,38,0.00,,,0.00,WUHU216TE923,2013-01-22 18:08:00,
2013-01-22 13:13:00,26.8,4.4,30.24,West,270,4.8,4.8,38,0.00,,,0.00,WUHU216TE923,2013-01-22 18:13:00,
2013-01-22 13:18:00,26.8,4.4,30.24,WSW,248,4.9,5.1,38,0.00,,,0.00,WUHU216TE923,2013-01-22 18:18:00,
2013-01-22 13:23:00,27.1,5.2,30.24,WSW,248,4.2,6.3,39,0.00,,,0.00,WUHU216TE923,2013-01-22 18:23:00,
2013-01-22 13:28:00,27.3,4.8,30.24,WSW,248,3.5,6.3,38,0.00,,,0.00,WUHU216TE923,2013-01-22 18:28:00,
2013-01-22 13:33:00,27.9,5.3,30.24,SW,225,4.4,4.7,38,0.00,,,0.00,WUHU216TE923,2013-01-22 18:33:00,
2013-01-22 13:38:00,28.2,5.0,30.23,WSW,248,3.4,4.4,37,0.00,,,0.00,WUHU216TE923,2013-01-22 18:38:00,
2013-01-22 13:43:00,28.0,4.2,30.23,West,270,3.5,4.2,36,0.00,,,0.00,WUHU216TE923,2013-01-22 18:43:00,
2013-01-22 13:48:00,27.9,4.8,30.23,NW,315,4.7,4.7,37,0.00,,,0.00,WUHU216TE923,2013-01-22 18:48:00,
2013-01-22 13:53:00,28.0,4.8,30.23,WSW,248,4.4,4.7,37,0.00,,,0.00,WUHU216TE923,2013-01-22 18:53:00,
2013-01-22 13:58:00,28.9,5.0,30.22,WSW,248,3.1,4.4,36,0.00,,,0.00,WUHU216TE923,2013-01-22 18:58:00,
2013-01-22 14:03:00,28.9,5.6,30.22,South,180,2.8,3.6,37,0.00,,,0.00,WUHU216TE923,2013-01-22 19:03:00,
2013-01-22 14:08:00,29.7,6.4,30.22,WSW,248,3.5,6.5,37,0.00,,,0.00,WUHU216TE923,2013-01-22 19:08:00,
2013-01-22 14:13:00,29.3,4.8,30.22,WSW,248,4.9,6.7,35,0.00,,,0.00,WUHU216TE923,2013-01-22 19:13:00,
2013-01-22 14:18:00,30.0,6.0,30.21,SW,225,4.4,6.7,36,0.00,,,0.00,WUHU216TE923,2013-01-22 19:18:00,
2013-01-22 14:23:00,31.1,6.4,30.21,SW,225,3.3,4.4,35,0.00,,,0.00,WUHU216TE923,2013-01-22 19:23:00,
2013-01-22 14:28:00,31.3,6.6,30.21,NW,315,4.0,4.0,35,0.00,,,0.00,WUHU216TE923,2013-01-22 19:28:00,
2013-01-22 14:33:00,31.5,6.1,30.21,ENE,68,3.8,4.0,34,0.00,,,0.00,WUHU216TE923,2013-01-22 19:33:00,
2013-01-22 14:38:00,31.5,5.4,30.21,WSW,248,4.1,8.8,33,0.00,,,0.00,WUHU216TE923,2013-01-22 19:38:00,
2013-01-22 14:43:00,31.1,6.4,30.21,West,270,4.8,8.8,35,0.00,,,0.00,WUHU216TE923,2013-01-22 19:43:00,
2013-01-22 14:48:00,31.1,5.7,30.21,West,270,5.4,5.4,34,0.00,,,0.00,WUHU216TE923,2013-01-22 19:48:00,
2013-01-22 14:53:00,31.5,6.1,30.21,WSW,248,4.5,6.6,34,0.00,,,0.00,WUHU216TE923,2013-01-22 19:53:00,
2013-01-22 14:58:00,31.8,6.4,30.21,West,270,4.5,6.6,34,0.00,,,0.00,WUHU216TE923,2013-01-22 19:58:00,
2013-01-22 15:03:00,32.0,6.5,30.21,WSW,248,4.4,4.7,34,0.00,,,0.00,WUHU216TE923,2013-01-22 20:03:00,
2013-01-22 15:08:00,32.5,6.3,30.21,West,270,3.5,6.2,33,0.00,,,0.00,WUHU216TE923,2013-01-22 20:08:00,
2013-01-22 15:13:00,32.0,6.5,30.21,WSW,248,3.8,6.5,34,0.00,,,0.00,WUHU216TE923,2013-01-22 20:13:00,
2013-01-22 15:18:00,31.8,6.4,30.21,WSW,248,4.2,9.7,34,0.00,,,0.00,WUHU216TE923,2013-01-22 20:18:00,
2013-01-22 15:23:00,30.4,5.1,30.21,West,270,5.0,9.7,34,0.00,,,0.00,WUHU216TE923,2013-01-22 20:23:00,
2013-01-22 15:28:00,30.4,5.1,30.21,SW,225,5.5,5.5,34,0.00,,,0.00,WUHU216TE923,2013-01-22 20:28:00,
2013-01-22 15:33:00,29.8,4.6,30.21,West,270,4.7,6.0,34,0.00,,,0.00,WUHU216TE923,2013-01-22 20:33:00,
2013-01-22 15:38:00,29.3,4.8,30.21,West,270,4.8,6.0,35,0.00,,,0.00,WUHU216TE923,2013-01-22 20:38:00,
2013-01-22 15:43:00,29.3,4.8,30.21,West,270,4.6,6.5,35,0.00,,,0.00,WUHU216TE923,2013-01-22 20:43:00,
2013-01-22 15:48:00,28.6,5.4,30.21,SW,225,4.2,7.0,37,0.00,,,0.00,WUHU216TE923,2013-01-22 20:48:00,
2013-01-22 15:53:00,28.6,5.4,30.21,West,270,4.1,7.0,37,0.00,,,0.00,WUHU216TE923,2013-01-22 20:53:00,
2013-01-22 15:58:00,27.9,4.2,30.21,WSW,248,4.7,6.7,36,0.00,,,0.00,WUHU216TE923,2013-01-22 20:58:00,
2013-01-22 16:03:00,27.3,3.6,30.21,West,270,5.5,8.5,36,0.00,,,0.00,WUHU216TE923,2013-01-22 21:03:00,
2013-01-22 16:08:00,26.8,3.8,30.21,WSW,248,5.8,8.7,37,0.00,,,0.00,WUHU216TE923,2013-01-22 21:08:00,
2013-01-22 16:13:00,26.8,4.4,30.21,West,270,5.6,8.7,38,0.00,,,0.00,WUHU216TE923,2013-01-22 21:13:00,
2013-01-22 16:18:00,26.8,3.8,30.20,WSW,248,4.2,5.6,37,0.00,,,0.00,WUHU216TE923,2013-01-22 21:18:00,
2013-01-22 16:23:00,26.4,4.0,30.20,West,270,3.9,5.4,38,0.00,,,0.00,WUHU216TE923,2013-01-22 21:23:00,
2013-01-22 16:28:00,26.2,3.8,30.20,SW,225,4.4,4.5,38,0.00,,,0.00,WUHU216TE923,2013-01-22 21:28:00,
2013-01-22 16:31:00,26.4,4.0,30.20,SW,225,4.0,6.0,38,0.00,,,0.00,WUHU216TE923,2013-01-22 21:31:00,
2013-01-22 16:36:00,26.4,4.6,30.21,West,270,3.8,6.0,39,0.00,,,0.00,WUHU216TE923,2013-01-22 21:36:00,
2013-01-22 16:42:00,26.4,4.6,30.21,SW,225,4.2,5.4,39,0.00,,,0.00,WUHU216TE923,2013-01-22 21:42:00,
2013-01-22 16:47:00,26.2,4.4,30.21,South,180,4.0,7.2,39,0.00,,,0.00,WUHU216TE923,2013-01-22 21:47:00,
2013-01-22 16:52:00,26.1,4.3,30.21,WSW,248,4.1,7.2,39,0.00,,,0.00,WUHU216TE923,2013-01-22 21:52:00,
2013-01-22 16:57:00,26.1,4.3,30.19,SW,225,4.3,6.0,39,0.00,,,0.00,WUHU216TE923,2013-01-22 21:57:00,
2013-01-22 17:02:00,26.1,3.7,30.19,SW,225,4.0,5.3,38,0.00,,,0.00,WUHU216TE923,2013-01-22 22:02:00,
2013-01-22 17:07:00,26.1,4.3,30.19,WSW,248,3.5,4.6,39,0.00,,,0.00,WUHU216TE923,2013-01-22 22:07:00,
2013-01-22 17:12:00,25.7,3.9,30.19,West,270,3.5,4.9,39,0.00,,,0.00,WUHU216TE923,2013-01-22 22:12:00,
2013-01-22 17:17:00,25.7,3.9,30.20,NW,315,3.5,4.9,39,0.00,,,0.00,WUHU216TE923,2013-01-22 22:17:00,
2013-01-22 17:22:00,25.7,3.9,30.20,WSW,248,3.1,4.2,39,0.00,,,0.00,WUHU216TE923,2013-01-22 22:22:00,
2013-01-22 17:27:00,26.1,4.9,30.20,SW,225,3.0,4.2,40,0.00,,,0.00,WUHU216TE923,2013-01-22 22:27:00,
2013-01-22 17:32:00,26.1,4.9,30.20,SW,225,2.8,3.2,40,0.00,,,0.00,WUHU216TE923,2013-01-22 22:32:00,
2013-01-22 17:37:00,25.7,4.5,30.20,WSW,248,3.0,5.5,40,0.00,,,0.00,WUHU216TE923,2013-01-22 22:37:00,
2013-01-22 17:42:00,25.5,4.3,30.20,SW,225,3.3,5.5,40,0.00,,,0.00,WUHU216TE923,2013-01-22 22:42:00,
2013-01-22 17:47:00,25.7,4.5,30.20,SW,225,3.6,7.8,40,0.00,,,0.00,WUHU216TE923,2013-01-22 22:47:00,
2013-01-22 17:52:00,25.5,4.3,30.20,SW,225,3.9,7.8,40,0.00,,,0.00,WUHU216TE923,2013-01-22 22:52:00,
2013-01-22 17:57:00,25.3,4.1,30.19,WNW,293,4.3,4.4,40,0.00,,,0.00,WUHU216TE923,2013-01-22 22:57:00,
2013-01-22 18:02:00,25.3,4.1,30.19,WNW,293,4.0,4.4,40,0.00,,,0.00,WUHU216TE923,2013-01-22 23:02:00,
2013-01-22 18:07:00,24.8,4.2,30.19,West,270,4.4,5.8,41,0.00,,,0.00,WUHU216TE923,2013-01-22 23:07:00,
2013-01-22 18:12:00,24.8,4.2,30.19,WSW,248,4.3,5.8,41,0.00,,,0.00,WUHU216TE923,2013-01-22 23:12:00,
2013-01-22 18:17:00,24.8,3.7,30.19,NW,315,4.2,4.3,40,0.00,,,0.00,WUHU216TE923,2013-01-22 23:17:00,
2013-01-22 18:23:00,24.8,3.7,30.19,WSW,248,4.2,5.4,40,0.00,,,0.00,WUHU216TE923,2013-01-22 23:23:00,
2013-01-22 18:28:00,25.0,4.4,30.19,NW,315,3.5,5.4,41,0.00,,,0.00,WUHU216TE923,2013-01-22 23:28:00,
2013-01-22 18:33:00,24.6,3.5,30.19,WSW,248,3.3,5.4,40,0.00,,,0.00,WUHU216TE923,2013-01-22 23:33:00,
2013-01-22 18:38:00,24.6,4.0,30.19,SW,225,3.4,5.6,41,0.00,,,0.00,WUHU216TE923,2013-01-22 23:38:00,
2013-01-22 18:43:00,24.6,4.0,30.19,WSW,248,3.7,5.6,41,0.00,,,0.00,WUHU216TE923,2013-01-22 23:43:00,
2013-01-22 18:48:00,24.6,4.0,30.19,West,270,3.4,3.7,41,0.00,,,0.00,WUHU216TE923,2013-01-22 23:48:00,
2013-01-22 18:53:00,24.6,4.0,30.19,West,270,3.2,3.7,41,0.00,,,0.00,WUHU216TE923,2013-01-22 23:53:00,
2013-01-22 18:58:00,24.3,3.8,30.20,ESE,113,3.8,3.9,41,0.00,,,0.00,WUHU216TE923,2013-01-22 23:58:00,
2013-01-22 19:03:00,24.3,4.3,30.20,West,270,4.3,4.9,42,0.00,,,0.00,WUHU216TE923,2013-01-23 00:03:00,
2013-01-22 19:08:00,24.6,5.1,30.20,WSW,248,3.6,4.9,43,0.00,,,0.00,WUHU216TE923,2013-01-23 00:08:00,
2013-01-22 19:13:00,24.6,5.1,30.20,SW,225,3.2,4.5,43,0.00,,,0.00,WUHU216TE923,2013-01-23 00:13:00,
2013-01-22 19:18:00,24.6,5.1,30.21,WSW,248,3.0,4.2,43,0.00,,,0.00,WUHU216TE923,2013-01-23 00:18:00,
2013-01-22 19:23:00,24.6,4.6,30.21,West,270,3.3,5.2,42,0.00,,,0.00,WUHU216TE923,2013-01-23 00:23:00,
2013-01-22 19:28:00,24.3,4.3,30.21,NNW,338,3.1,5.2,42,0.00,,,0.00,WUHU216TE923,2013-01-23 00:28:00,
2013-01-22 19:33:00,24.3,4.8,30.21,WSW,248,3.0,4.3,43,0.00,,,0.00,WUHU216TE923,2013-01-23 00:33:00,
2013-01-22 19:38:00,24.3,5.4,30.21,West,270,3.3,5.0,44,0.00,,,0.00,WUHU216TE923,2013-01-23 00:38:00,
2013-01-22 19:43:00,24.1,4.7,30.21,NNE,23,3.2,5.0,43,0.00,,,0.00,WUHU216TE923,2013-01-23 00:43:00,
2013-01-22 19:48:00,24.1,5.2,30.21,West,270,3.3,3.6,44,0.00,,,0.00,WUHU216TE923,2013-01-23 00:48:00,
2013-01-22 19:53:00,23.9,5.0,30.21,WSW,248,3.3,3.6,44,0.00,,,0.00,WUHU216TE923,2013-01-23 00:53:00,
2013-01-22 19:58:00,23.9,5.5,30.20,WSW,248,2.7,3.8,45,0.00,,,0.00,WUHU216TE923,2013-01-23 00:58:00,
2013-01-22 20:03:00,23.9,5.5,30.20,SW,225,2.4,4.0,45,0.00,,,0.00,WUHU216TE923,2013-01-23 01:03:00,
2013-01-22 20:08:00,23.9,5.5,30.20,WNW,293,2.5,4.3,45,0.00,,,0.00,WUHU216TE923,2013-01-23 01:08:00,
2013-01-22 20:13:00,23.9,5.5,30.20,West,270,2.5,4.3,45,0.00,,,0.00,WUHU216TE923,2013-01-23 01:13:00,
2013-01-22 20:18:00,23.9,5.0,30.20,WSW,248,2.5,3.0,44,0.00,,,0.00,WUHU216TE923,2013-01-23 01:18:00,
2013-01-22 20:23:00,23.9,5.0,30.20,West,270,2.1,3.0,44,0.00,,,0.00,WUHU216TE923,2013-01-23 01:23:00,
2013-01-22 20:28:00,24.3,5.9,30.20,West,270,1.4,2.6,45,0.00,,,0.00,WUHU216TE923,2013-01-23 01:28:00,
2013-01-22 20:33:00,24.1,5.2,30.20,SW,225,1.7,2.6,44,0.00,,,0.00,WUHU216TE923,2013-01-23 01:33:00,
2013-01-22 20:38:00,23.9,5.0,30.20,WSW,248,2.2,2.2,44,0.00,,,0.00,WUHU216TE923,2013-01-23 01:38:00,
2013-01-22 20:43:00,23.9,5.0,30.20,SW,225,2.1,2.2,44,0.00,,,0.00,WUHU216TE923,2013-01-23 01:43:00,
2013-01-22 20:48:00,23.9,5.5,30.20,West,270,1.8,2.1,45,0.00,,,0.00,WUHU216TE923,2013-01-23 01:48:00,
2013-01-22 20:53:00,23.9,5.5,30.20,West,270,1.8,2.2,45,0.00,,,0.00,WUHU216TE923,2013-01-23 01:53:00,
2013-01-22 20:58:00,23.7,4.8,30.20,WSW,248,2.1,2.3,44,0.00,,,0.00,WUHU216TE923,2013-01-23 01:58:00,
2013-01-22 21:03:00,23.9,5.5,30.20,West,270,2.3,2.9,45,0.00,,,0.00,WUHU216TE923,2013-01-23 02:03:00,
2013-01-22 21:08:00,23.5,4.6,30.20,West,270,2.6,2.9,44,0.00,,,0.00,WUHU216TE923,2013-01-23 02:08:00,
2013-01-22 21:13:00,23.5,5.1,30.20,WNW,293,2.5,2.6,45,0.00,,,0.00,WUHU216TE923,2013-01-23 02:13:00,
2013-01-22 21:18:00,23.5,5.1,30.20,WSW,248,2.1,2.5,45,0.00,,,0.00,WUHU216TE923,2013-01-23 02:18:00,
2013-01-22 21:23:00,23.9,5.5,30.20,West,270,2.1,2.5,45,0.00,,,0.00,WUHU216TE923,2013-01-23 02:23:00,
2013-01-22 21:28:00,23.5,5.1,30.20,West,270,2.5,3.1,45,0.00,,,0.00,WUHU216TE923,2013-01-23 02:28:00,
2013-01-22 21:33:00,23.5,4.6,30.20,ESE,113,2.9,3.1,44,0.00,,,0.00,WUHU216TE923,2013-01-23 02:33:00,
2013-01-22 21:38:00,23.4,5.0,30.19,WSW,248,2.9,2.9,45,0.00,,,0.00,WUHU216TE923,2013-01-23 02:38:00,
2013-01-22 21:43:00,23.4,5.5,30.19,WSW,248,2.7,3.3,46,0.00,,,0.00,WUHU216TE923,2013-01-23 02:43:00,
2013-01-22 21:48:00,23.2,5.3,30.19,WSW,248,2.4,3.3,46,0.00,,,0.00,WUHU216TE923,2013-01-23 02:48:00,
2013-01-22 21:53:00,23.4,5.5,30.19,WSW,248,2.2,3.9,46,0.00,,,0.00,WUHU216TE923,2013-01-23 02:53:00,
2013-01-22 21:58:00,23.2,4.9,30.19,West,270,2.4,3.9,45,0.00,,,0.00,WUHU216TE923,2013-01-23 02:58:00,
2013-01-22 22:03:00,23.2,4.9,30.19,West,270,2.6,3.4,45,0.00,,,0.00,WUHU216TE923,2013-01-23 03:03:00,
2013-01-22 22:08:00,23.0,4.7,30.19,WSW,248,1.9,2.6,45,0.00,,,0.00,WUHU216TE923,2013-01-23 03:08:00,
2013-01-22 22:13:00,23.2,4.9,30.19,WNW,293,1.6,3.0,45,0.00,,,0.00,WUHU216TE923,2013-01-23 03:13:00,
2013-01-22 22:18:00,23.2,4.9,30.19,WSW,248,1.8,3.0,45,0.00,,,0.00,WUHU216TE923,2013-01-23 03:18:00,
2013-01-22 22:23:00,23.2,5.3,30.19,SE,135,1.6,2.2,46,0.00,,,0.00,WUHU216TE923,2013-01-23 03:23:00,
2013-01-22 22:28:00,23.2,5.8,30.19,WSW,248,1.7,2.6,47,0.00,,,0.00,WUHU216TE923,2013-01-23 03:28:00,
2013-01-22 22:33:00,23.5,6.1,30.19,WSW,248,2.1,2.8,47,0.00,,,0.00,WUHU216TE923,2013-01-23 03:33:00,
2013-01-22 22:38:00,23.2,5.8,30.20,West,270,2.3,2.8,47,0.00,,,0.00,WUHU216TE923,2013-01-23 03:38:00,
2013-01-22 22:43:00,23.2,5.3,30.20,West,270,2.4,2.4,46,0.00,,,0.00,WUHU216TE923,2013-01-23 03:43:00,
2013-01-22 22:48:00,23.0,5.2,30.20,SW,225,2.5,2.5,46,0.00,,,0.00,WUHU216TE923,2013-01-23 03:48:00,
2013-01-22 22:53:00,23.0,5.2,30.20,SW,225,2.3,2.5,46,0.00,,,0.00,WUHU216TE923,2013-01-23 03:53:00,
2013-01-22 22:58:00,23.2,6.3,30.21,WSW,248,1.8,4.0,48,0.00,,,0.00,WUHU216TE923,2013-01-23 03:58:00,
2013-01-22 23:03:00,23.2,6.3,30.21,West,270,1.8,4.0,48,0.00,,,0.00,WUHU216TE923,2013-01-23 04:03:00,
2013-01-22 23:08:00,23.2,6.3,30.21,West,270,2.3,4.1,48,0.00,,,0.00,WUHU216TE923,2013-01-23 04:08:00,
2013-01-22 23:13:00,23.2,6.3,30.21,West,270,2.2,4.1,48,0.00,,,0.00,WUHU216TE923,2013-01-23 04:13:00,
2013-01-22 23:18:00,23.2,5.8,30.21,WSW,248,2.3,2.3,47,0.00,,,0.00,WUHU216TE923,2013-01-23 04:18:00,
2013-01-22 23:23:00,23.0,5.6,30.21,NW,315,2.3,2.3,47,0.00,,,0.00,WUHU216TE923,2013-01-23 04:23:00,
2013-01-22 23:28:00,23.2,6.3,30.21,West,270,1.8,2.3,48,0.00,,,0.00,WUHU216TE923,2013-01-23 04:28:00,
2013-01-22 23:33:00,23.2,6.3,30.21,WNW,293,1.8,1.9,48,0.00,,,0.00,WUHU216TE923,2013-01-23 04:33:00,
2013-01-22 23:38:00,23.2,5.3,30.21,WSW,248,1.6,2.2,46,0.00,,,0.00,WUHU216TE923,2013-01-23 04:38:00,
2013-01-22 23:43:00,23.2,5.3,30.21,SW,225,1.6,2.6,46,0.00,,,0.00,WUHU216TE923,2013-01-23 04:43:00,
2013-01-22 23:48:00,23.2,5.3,30.21,SW,225,1.9,3.1,46,0.00,,,0.00,WUHU216TE923,2013-01-23 04:48:00,
2013-01-22 23:53:00,23.2,5.3,30.21,West,270,1.7,3.1,46,0.00,,,0.00,WUHU216TE923,2013-01-23 04:53:00,
2013-01-22 23:58:00,22.8,5.0,30.21,WSW,248,1.7,3.8,46,0.00,,,0.00,WUHU216TE923,2013-01-23 04:58:00,